Location: Newark
(50.4348°N, 30.5552°E)
Time: 03:18:33
(UTC+00:00)

Vanguard 3 - Visible Passes

Search period start: 18 January 2020 00:00
Search period end: 28 January 2020 00:00
Orbit: 508 x 3263 km, 33.3° (Epoch: 17 January)

Date Brightness Start Highest point End Pass type
(mag) Time Alt. Az. Time Alt. Az. Time Alt. Az.
18 Jan 10.5 16:00:54 10° SSW 16:13:26 23° SSE 16:22:16 12° ESE visible
18 Jan 9.9 18:12:37 10° SW 18:26:32 33° S 18:26:50 33° S visible
18 Jan 10.7 20:27:43 10° WSW 20:31:24 18° WSW 20:31:24 18° WSW visible
19 Jan 10.9 14:48:09 10° S 14:58:21 17° SE 15:07:12 10° ESE visible
19 Jan 10.1 16:56:52 10° SW 17:11:30 31° SSE 17:17:04 24° SE visible
19 Jan 10.1 19:10:55 10° WSW 19:21:38 32° SSW 19:21:38 32° SSW visible
20 Jan 10.6 15:42:07 10° SSW 15:56:15 26° SSE 16:07:17 10° ESE visible
20 Jan 9.9 17:54:24 10° SW 18:09:36 36° S 18:11:51 34° SSE visible
20 Jan 10.5 20:09:54 10° WSW 20:16:25 23° SW 20:16:25 23° SW visible
21 Jan 10.2 16:38:32 10° SW 16:54:22 34° SSE 17:02:02 22° ESE visible
21 Jan 10.0 18:52:55 10° WSW 19:06:36 36° SSW 19:06:36 36° SSW visible
21 Jan 11.0 21:09:32 10° WSW 21:11:11 13° WSW 21:11:11 13° WSW visible
22 Jan 10.7 15:23:38 10° SSW 15:38:55 30° SSE 15:51:22 10° ESE visible
22 Jan 9.9 17:36:19 10° SW 17:52:33 39° S 17:56:48 33° SSE visible
22 Jan 10.3 19:52:03 10° WSW 20:01:22 28° SW 20:01:22 28° SW visible
23 Jan 10.3 16:20:23 10° SW 16:37:06 37° SSE 16:46:58 18° ESE visible
23 Jan 9.9 18:34:57 10° WSW 18:50:35 38° S 18:51:32 38° S visible
23 Jan 10.8 20:51:52 10° WSW 20:56:06 17° WSW 20:56:06 17° WSW visible
24 Jan 10.7 15:05:24 10° SSW 15:21:29 33° SSE 15:35:04 10° ESE visible
24 Jan 10.0 17:18:20 10° WSW 17:35:21 41° S 17:41:43 30° SE visible
24 Jan 10.2 19:34:13 10° WSW 19:46:17 32° SW 19:46:17 32° SW visible
25 Jan 10.5 16:02:24 10° SW 16:19:43 40° S 16:31:53 15° ESE visible
25 Jan 9.9 18:17:04 10° WSW 18:33:27 40° SSW 18:36:27 37° S visible
25 Jan 10.7 20:34:12 10° W 20:41:01 21° WSW 20:41:01 21° WSW visible
26 Jan 10.8 14:47:26 10° SW 15:03:56 35° SSE 15:18:34 10° ESE visible
26 Jan 10.2 17:00:28 10° WSW 17:18:02 43° S 17:26:39 25° SE visible
26 Jan 10.2 19:16:24 10° W 19:31:10 33° SSW 19:31:12 33° SSW visible
27 Jan 10.6 15:44:37 10° SW 16:02:14 42° S 16:16:50 10° ESE visible
27 Jan 10.1 17:59:16 10° WSW 18:16:11 40° SSW 18:21:24 33° SSE visible
27 Jan 10.6 20:16:34 10° W 20:25:58 23° SW 20:25:58 23° SW visible
